This is the latest recevied weather packets stored in our database for station/object N5VIS. If no packets are shown the sender has not sent any weather packets the latest 10 day(s).
| Time | Temp. | Humidity | Pressure | Rain* | Wind** | Luminosity | Snow |
|---|---|---|---|---|---|---|---|
| 1777701857 | 13.89° C | 99% | 1012 hPa | 3.05 mm | - | - | - |
| 1777701554 | 13.89° C | 99% | 1012.3 hPa | 0 mm | - | - | - |
| 1777701252 | 13.89° C | 99% | 1012.1 hPa | 0 mm | - | - | - |
| 1777700951 | 13.89° C | 99% | 1011.7 hPa | 0 mm | - | - | - |
| 1777700648 | 13.89° C | 99% | 1011.6 hPa | 0 mm | - | - | - |
| 1777700346 | 13.89° C | 99% | 1011.8 hPa | 0 mm | - | - | - |
| 1777700043 | 13.89° C | 99% | 1012.1 hPa | 0 mm | - | - | - |
| 1777699740 | 13.33° C | 99% | 1011.9 hPa | 0 mm | - | - | - |
| 1777699439 | 13.33° C | 99% | 1011.7 hPa | 0 mm | - | - | - |
| 1777699135 | 13.33° C | 99% | 1012.2 hPa | 0 mm | - | - | - |
| 1777698834 | 13.33° C | 99% | 1011.9 hPa | 0 mm | - | - | - |
| 1777698530 | 13.33° C | 99% | 1011.9 hPa | 0 mm | - | - | - |
| 1777698227 | 13.33° C | 99% | 1012.2 hPa | 0 mm | - | - | - |
| 1777697924 | 13.33° C | 99% | 1012.2 hPa | 0 mm | - | - | - |
| 1777697620 | 13.33° C | 99% | 1012.4 hPa | 0 mm | - | - | - |
| 1777697318 | 13.33° C | 99% | 1012.1 hPa | 0 mm | - | - | - |
| 1777697013 | 13.33° C | 99% | 1012.3 hPa | 0 mm | - | - | - |
| 1777696712 | 13.33° C | 99% | 1012.2 hPa | 0 mm | - | - | - |
| 1777696410 | 13.33° C | 99% | 1012.8 hPa | 3.05 mm | - | - | - |
| 1777696108 | 13.33° C | 99% | 1012.7 hPa | 6.1 mm | - | - | - |
| 1777695806 | 13.33° C | 99% | 1011.4 hPa | 4.32 mm | - | - | - |
| 1777695503 | 13.33° C | 99% | 1012.5 hPa | 6.1 mm | - | - | - |
| 1777695200 | 13.89° C | 99% | 1013.3 hPa | 8.89 mm | - | - | - |
| 1777694898 | 13.89° C | 99% | 1013.4 hPa | 10.67 mm | - | - | - |
| 1777694594 | 13.89° C | 99% | 1014.2 hPa | 6.1 mm | - | - | - |
* Rain latest hour (hover to see other rain measurements)
** Current wind speed in m/s (hover to see current wind gust speed)